Temperature
24 22 22 22 23 24 24 23 23 24 24 22 22 21 21 21 20 20 19 19 19 20 20 20 20 20 20 20 19 19 19 19 19 18 18 18 18 18 18 18 18 17 17 17
23 23 24 24 24 24 24 23 23 23 23 23 22 21 21 21 20 20 20 19 20 20 20 20 20 20 20 19 19 19 19 19 19 19 18 18 18 18 18 18 17 17 17 17
24 24 25 25 24 24 24 23 24 23 23 23 22 21 21 21 21 20 20 20 20 20 20 20 20 20 19 20 19 19 19 19 19 18 18 18 18 18 18 18 17 17 17 17
23 24 25 25 25 24 24 24 24 24 22 21 22 21 21 20 20 20 20 20 20 20 20 20 20 20 20 19 19 19 19 19 19 18 18 18 18 18 18 17 17 17 17 17
24 25 25 25 26 25 24 25 24 23 21 21 21 21 20 20 19 19 19 20 20 20 20 20 20 20 20 20 19 19 19 19 18 18 18 18 18 17 17 17 17 17 17 17
24 25 26 26 26 25 24 23 22 20 20 21 21 20 20 19 19 20 20 20 20 20 20 20 20 20 20 19 19 19 19 18 18 18 18 18 18 17 17 17 17 17 17 17
25 25 26 26 25 25 24 22 21 22 20 20 20 20 20 20 20 20 20 20 20 20 20 20 20 20 20 20 19 19 19 18 18 18 18 18 17 17 17 17 17 17 17 17
24 24 25 26 25 24 23 22 21 22 21 20 20 20 20 21 21 21 21 21 20 20 20 20 20 20 20 20 19 19 19 19 18 18 18 18 17 17 17 17 17 17 17 17
22 23 25 26 25 24 23 21 21 19 20 20 20 20 20 21 20 20 20 20 20 20 20 20 20 20 20 20 19 19 19 19 18 18 18 18 17 17 17 17 17 16 16 16
23 24 24 25 25 24 23 20 18 19 20 20 21 20 20 21 20 19 19 19 20 20 20 20 20 20 20 20 19 19 19 18 18 18 18 18 17 17 17 17 16 16 16 16
22 23 23 24 24 24 22 21 18 17 18 19 20 20 21 20 19 19 19 20 20 20 21 20 20 20 20 19 19 19 19 18 18 18 17 17 17 17 17 17 16 16 16 16
20 20 21 22 23 23 23 21 19 20 19 17 18 20 21 19 19 19 19 20 20 20 20 20 20 20 19 19 19 19 18 18 18 18 17 17 17 17 17 17 16 16 16 16
20 20 21 22 22 22 22 21 19 17 17 16 18 20 20 18 19 19 19 20 20 20 20 20 20 20 19 19 19 19 18 18 18 17 17 17 17 17 17 16 16 16 16 16
20 18 20 21 21 21 22 21 19 18 18 17 18 20 19 19 18 18 19 19 20 20 20 20 19 19 19 19 19 19 18 18 17 17 17 17 17 17 16 16 16 16 16 16
19 19 20 20 21 21 21 22 20 20 19 19 20 19 19 18 18 18 19 19 19 19 19 19 19 19 19 19 19 18 18 18 17 17 17 17 17 16 16 16 16 16 16 15
17 19 20 21 21 21 21 21 21 21 20 19 20 19 18 18 18 18 19 19 19 19 20 20 19 19 19 19 18 18 18 17 17 17 17 17 16 16 16 16 15 15 15 15
16 18 18 19 20 21 20 20 20 20 19 19 19 19 18 17 17 18 19 19 19 19 19 20 20 19 19 19 18 18 18 17 17 17 16 16 16 16 15 15 15 15 15 15
15 15 15 17 19 20 20 20 20 20 19 18 18 18 17 18 19 19 20 20 20 20 20 20 20 19 19 19 18 18 17 17 17 16 16 16 16 15 15 15 15 15 14 14
14 15 14 15 17 18 19 20 19 19 19 18 18 18 18 18 18 19 20 20 20 20 20 20 20 19 19 19 18 18 17 17 17 16 16 16 15 15 15 15 15 15 14 14
13 13 14 15 17 18 19 20 20 19 19 18 18 17 17 17 17 18 20 20 20 20 20 19 19 19 18 18 18 17 17 17 16 16 16 15 15 15 15 15 14 14 14 14
15 14 14 15 16 17 18 18 19 19 19 19 18 18 17 17 18 20 20 20 20 20 20 19 19 18 18 18 17 17 17 16 16 16 15 15 15 15 14 14 14 14 14 14
15 15 14 14 16 17 18 18 18 18 19 19 19 19 18 19 19 19 20 20 19 19 19 19 18 18 17 17 17 17 16 16 16 15 15 15 14 14 14 14 14 14 13 13
14 14 14 14 15 16 17 18 19 19 19 19 19 19 19 19 19 19 19 19 19 19 19 18 18 17 17 17 17 16 16 16 15 15 14 14 14 14 14 14 13 13 13 13
14 13 13 14 15 16 17 18 18 19 19 19 19 19 18 18 18 18 18 18 18 18 18 18 17 17 17 17 16 16 16 15 15 15 14 14 14 14 13 13 13 13 13 13
13 13 13 13 14 15 17 18 18 18 18 18 18 18 18 18 18 18 18 18 18 18 18 17 17 17 17 16 16 16 15 15 15 14 14 14 14 13 13 13 13 13 13 12
12 13 13 14 15 14 16 18 18 18 18 18 18 18 18 18 17 17 17 17 17 17 17 17 17 16 16 16 15 15 15 15 14 14 14 13 13 13 13 13 13 13 13 12
Wind_Speed
2 3 4 8 9 6 4 4 5 5 4 4 5 3 4 6 6 6 6 6 7 7 5 4 4 4 4 4 4 5 4 3 3 2 2 2 1 1 1 1 2 2 2 2
3 5 9 6 5 4 4 3 5 4 1 4 2 3 3 5 8 8 8 8 8 6 4 4 4 4 5 5 5 5 5 5 4 3 3 2 2 1 1 1 1 1 2 2
7 7 3 4 3 4 5 6 5 3 2 2 2 3 2 2 3 4 6 6 6 8 7 6 5 5 5 6 7 6 6 5 4 4 3 2 1 1 1 1 1 1 1 2
6 6 3 3 4 6 5 6 6 4 4 1 2 3 6 3 4 5 6 6 7 7 6 6 6 6 6 6 5 5 5 4 4 4 4 4 3 2 2 1 1 1 1 1
6 4 3 5 6 6 6 0 2 3 4 1 2 2 7 1 4 8 8 8 7 7 7 7 7 7 6 5 5 5 4 4 3 4 4 4 2 2 1 0 0 1 0 1
6 4 5 6 2 4 4 6 7 6 5 1 3 3 6 4 7 6 7 8 8 7 7 7 6 5 4 4 5 5 5 4 3 4 4 4 4 3 2 1 0 1 0 0
5 4 3 2 1 2 5 6 4 4 3 5 2 3 8 7 6 7 8 9 8 7 7 7 7 7 7 6 6 5 5 4 4 4 4 4 4 4 3 3 2 2 1 1
3 6 4 3 6 6 4 8 7 5 5 5 1 5 7 5 4 3 4 5 6 7 7 8 8 8 7 6 6 6 6 5 5 5 4 4 4 3 3 3 2 2 2 2
7 6 4 2 2 8 6 4 6 7 3 1 5 6 7 1 1 1 3 4 6 7 8 8 7 7 7 7 7 7 7 5 5 5 4 4 4 4 3 2 2 2 2 1
9 5 4 3 4 4 4 8 6 6 5 3 5 5 5 6 5 3 4 5 6 6 6 6 6 6 6 6 5 5 5 5 4 4 4 4 4 4 3 2 2 2 2 1
6 5 4 3 2 3 3 4 5 5 5 6 4 7 5 7 7 7 7 7 6 6 6 6 6 5 5 5 5 5 4 4 4 4 4 4 3 3 3 3 3 3 2 2
4 5 2 5 4 2 4 6 7 5 4 4 4 7 5 4 5 6 6 5 5 5 5 5 5 5 5 5 5 5 5 5 5 4 4 3 3 3 3 3 3 2 2 2
5 6 2 6 5 3 2 2 4 6 5 5 5 6 3 1 1 3 4 4 4 4 4 4 4 5 5 5 5 5 5 5 4 3 3 3 3 3 4 4 3 2 2 2
5 5 6 8 7 4 2 1 4 6 5 5 7 7 5 3 2 3 3 4 4 4 4 4 4 4 5 5 5 5 5 4 4 3 4 4 4 4 4 4 3 3 3 3
5 4 4 4 3 3 3 3 4 5 7 8 7 7 8 6 6 5 4 4 3 4 4 5 4 4 3 3 3 4 4 4 4 4 4 5 4 3 3 3 3 3 3 3
4 4 2 1 1 1 1 3 3 4 4 5 3 6 6 3 2 3 4 5 5 5 6 5 5 4 4 5 4 4 4 4 4 5 5 4 3 3 3 3 3 3 3 3
2 5 3 3 3 2 3 5 4 3 3 6 7 7 3 2 4 6 6 6 6 6 6 6 6 6 6 6 6 6 5 4 4 4 4 4 3 3 3 3 2 3 4 3
6 5 4 2 2 5 8 3 3 3 2 3 3 4 4 5 4 4 5 6 7 6 6 6 5 6 5 5 5 5 5 5 5 4 4 3 3 3 3 3 3 3 3 3
5 7 5 4 3 5 6 2 4 4 3 2 3 2 1 1 2 2 4 5 7 7 6 6 6 6 5 5 5 5 4 4 4 4 4 4 4 4 4 4 4 3 3 4
5 5 5 4 4 7 7 4 2 4 4 4 3 3 2 3 1 5 5 4 5 4 4 4 4 5 5 5 5 5 5 5 5 5 5 4 4 4 4 4 4 3 3 4
3 3 4 4 4 7 6 3 3 4 7 4 4 4 5 5 6 5 3 3 4 4 4 4 5 5 6 6 6 5 5 6 6 4 3 3 4 4 4 4 3 3 3 3
5 4 4 5 4 7 3 2 5 7 3 2 3 4 5 4 4 4 3 3 3 3 3 4 5 5 4 5 6 6 6 6 4 4 3 3 4 4 3 3 3 2 2 3
4 6 6 7 7 5 3 3 4 2 2 3 3 3 4 3 4 4 3 3 3 3 4 4 6 5 4 5 7 7 6 5 4 3 3 3 3 3 3 3 3 2 2 3
2 1 3 2 4 4 4 3 2 1 2 3 3 3 3 4 4 3 3 3 3 3 4 4 5 5 5 5 5 6 5 4 4 4 4 3 3 2 2 2 3 3 4 4
4 2 2 2 4 4 4 3 3 2 2 1 1 2 3 3 3 3 3 4 4 3 4 4 6 7 7 6 5 5 4 5 4 4 3 3 3 3 3 3 3 5 5 5
3 5 5 6 7 5 6 5 3 2 3 3 2 3 3 2 3 3 3 3 3 4 4 4 5 6 6 5 6 5 5 5 5 4 4 3 3 3 3 3 3 4 6 7
Wind_Direction
116 107 205 212 201 203 191 203 255 260 200 164 208 229 205 181 182 184 183 187 197 210 208 185 184 180 175 179 180 181 180 178 155 147 159 164 200 238 260 245 244 233 214 186
49 253 236 214 193 191 192 221 258 289 162 163 200 259 229 186 195 192 189 197 202 205 199 191 182 176 182 187 190 187 185 179 175 180 176 170 173 202 219 253 268 241 217 201
204 241 225 181 192 196 223 207 226 215 47 67 100 323 265 220 195 192 196 199 198 202 202 197 192 191 191 194 194 193 187 182 181 171 141 115 76 27 9 330 298 275 210 194
234 250 214 209 222 184 248 230 204 167 127 271 136 277 282 238 214 208 204 198 199 203 199 197 196 196 197 198 187 180 177 175 173 160 159 164 176 204 230 234 245 284 165 176
243 222 196 221 228 183 218 50 133 133 132 69 21 172 288 273 236 229 214 203 200 201 197 201 201 199 195 183 172 167 158 158 158 155 162 163 177 197 191 142 307 336 22 170
242 236 207 218 228 160 141 69 61 55 78 3 246 182 275 238 229 227 209 203 200 198 197 199 197 187 185 175 169 161 154 160 153 153 156 161 169 168 144 145 198 286 274 273
301 290 249 173 102 45 97 89 33 1 7 251 242 195 251 250 232 213 205 204 200 196 195 193 188 187 187 183 179 172 166 171 166 164 173 179 180 179 187 200 208 218 221 238
216 281 253 195 183 187 173 142 160 201 225 267 287 233 254 272 263 212 194 189 183 188 193 194 193 190 188 184 181 177 175 178 177 178 185 187 182 187 203 208 208 212 219 230
186 247 276 231 187 145 141 161 159 135 150 248 276 280 297 285 336 138 158 164 184 193 193 193 189 186 188 187 187 185 181 184 186 190 187 187 186 186 200 210 214 222 225 220
169 222 290 305 71 45 134 142 105 125 157 236 281 274 251 247 228 208 191 195 197 194 191 189 186 184 187 187 182 178 181 187 190 193 200 198 201 199 198 197 213 222 221 208
149 172 302 19 133 193 111 104 107 116 149 163 236 266 234 224 213 204 209 205 199 195 193 187 182 182 179 169 168 179 187 187 193 200 204 200 206 205 192 195 212 217 216 205
138 129 230 266 264 202 161 163 150 157 207 177 185 261 291 230 208 193 202 205 202 197 191 180 171 165 169 176 181 188 192 199 206 201 195 206 209 204 200 209 215 208 214 226
136 117 81 338 339 3 76 130 143 130 124 157 180 259 320 17 150 188 194 198 192 179 167 164 170 175 181 186 191 190 191 202 205 187 189 201 208 205 214 219 219 209 206 218
115 116 163 195 217 214 237 204 157 138 155 191 216 239 281 286 247 233 205 187 177 173 174 178 187 191 192 190 187 184 187 185 181 181 190 209 219 214 220 226 222 216 210 213
99 143 186 215 224 180 206 234 188 186 188 187 217 218 244 238 230 220 201 180 169 178 186 193 195 199 189 183 180 172 174 177 179 184 203 220 227 220 221 230 233 225 221 227
73 141 148 294 287 195 242 282 225 208 188 194 209 248 250 230 201 194 198 188 191 205 204 199 194 190 186 184 177 171 179 182 175 186 209 221 223 222 227 235 239 239 240 237
112 131 132 237 291 15 270 253 217 203 205 180 205 233 235 209 206 205 204 200 208 214 208 204 203 199 196 191 181 184 192 180 177 194 211 215 214 224 237 238 237 244 244 241
145 128 135 159 110 226 242 246 188 179 230 216 223 235 212 224 225 215 205 202 213 215 213 211 204 198 197 188 182 181 175 176 187 201 214 217 215 227 235 228 234 242 241 240
153 140 129 137 186 262 285 248 179 176 259 234 214 239 260 60 40 304 237 213 213 214 212 208 200 196 187 187 186 174 180 183 189 205 217 223 221 225 228 233 241 237 231 242
73 103 123 135 168 225 241 265 209 132 265 256 190 206 188 107 171 260 250 226 230 226 212 201 188 175 181 192 178 173 187 190 204 214 220 218 214 216 224 231 236 234 223 241
69 71 129 161 203 251 255 273 110 173 238 245 198 200 188 195 220 250 254 239 227 221 207 189 180 186 195 186 174 183 195 211 219 216 216 219 216 218 222 225 229 232 232 236
172 160 174 152 183 249 264 131 180 219 249 218 203 204 209 241 265 269 249 243 232 225 211 189 185 199 197 181 176 191 211 220 211 200 205 220 226 226 221 210 225 222 224 240
192 192 184 185 208 246 254 227 250 215 223 230 212 231 209 231 260 258 239 236 240 230 217 201 191 197 205 196 188 199 216 206 199 199 211 221 224 228 218 209 218 224 223 235
266 148 139 226 269 281 287 298 313 278 237 252 235 226 215 225 244 248 247 248 250 247 226 208 189 195 213 215 210 213 208 196 193 206 223 225 218 231 237 225 216 218 223 232
234 172 154 238 273 310 303 276 269 301 325 326 304 242 216 215 259 255 243 248 250 248 232 209 206 212 221 220 221 219 198 185 196 208 221 225 223 220 229 235 231 227 228 222
214 196 189 225 229 213 251 262 255 268 280 273 280 292 279 233 243 256 244 249 247 244 234 222 222 224 228 223 225 219 199 191 194 208 221 224 224 224 224 231 262 252 239 241
Height
1490 1496 1501 1498 1496 1497 1500 1505 1506 1500 1495 1499 1503 1503 1501 1500 1501 1502 1504 1505 1506 1507 1509 1511 1513 1514 1516 1517 1518 1519 1521 1521 1522 1522 1523 1523 1524 1525 1525 1526 1526 1527 1527 1527
1495 1497 1489 1488 1491 1494 1498 1504 1504 1498 1494 1498 1503 1503 1499 1499 1500 1500 1502 1504 1505 1507 1508 1509 1511 1512 1514 1515 1516 1517 1519 1520 1521 1521 1522 1522 1523 1524 1524 1525 1525 1526 1526 1526
1495 1489 1483 1487 1491 1495 1497 1501 1500 1501 1498 1498 1503 1507 1502 1499 1499 1500 1501 1502 1503 1505 1506 1507 1508 1510 1512 1512 1514 1515 1516 1518 1519 1520 1521 1521 1522 1523 1523 1523 1524 1524 1524 1525
1490 1483 1483 1486 1489 1491 1498 1488 1491 1496 1506 1513 1508 1522 1505 1500 1499 1498 1498 1499 1500 1502 1503 1505 1506 1508 1509 1510 1512 1513 1515 1516 1517 1518 1519 1520 1520 1521 1521 1522 1522 1523 1523 1524
1487 1481 1482 1486 1484 1484 1488 1484 1489 1496 1506 1515 1513 1521 1512 1501 1501 1497 1495 1496 1497 1499 1500 1502 1503 1505 1507 1509 1510 1512 1513 1514 1515 1516 1518 1518 1519 1519 1520 1521 1521 1522 1522 1522
1480 1477 1477 1478 1477 1479 1482 1489 1496 1505 1513 1525 1517 1522 1516 1504 1496 1492 1492 1493 1494 1496 1498 1499 1501 1503 1505 1507 1508 1510 1511 1513 1514 1515 1516 1517 1517 1518 1518 1519 1519 1520 1520 1521
1485 1478 1474 1474 1480 1481 1485 1502 1521 1524 1532 1528 1514 1518 1511 1492 1487 1487 1487 1489 1491 1493 1495 1496 1498 1500 1503 1505 1506 1508 1510 1511 1513 1514 1515 1515 1516 1516 1516 1517 1517 1518 1518 1519
1496 1494 1476 1473 1477 1484 1487 1497 1520 1531 1534 1527 1516 1517 1500 1486 1484 1483 1485 1487 1489 1491 1492 1494 1495 1498 1500 1502 1504 1506 1508 1509 1511 1512 1513 1514 1514 1514 1515 1515 1515 1516 1516 1517
1494 1492 1472 1470 1471 1476 1489 1496 1497 1515 1522 1528 1521 1509 1494 1485 1484 1484 1484 1486 1487 1488 1490 1491 1494 1496 1498 1500 1502 1504 1506 1508 1509 1510 1511 1512 1512 1512 1513 1513 1514 1514 1514 1514
1480 1488 1476 1472 1471 1475 1480 1490 1505 1516 1528 1531 1520 1513 1505 1489 1486 1485 1484 1484 1485 1487 1488 1490 1492 1494 1496 1499 1501 1503 1505 1506 1507 1509 1509 1510 1510 1511 1511 1512 1512 1512 1512 1512
1475 1486 1484 1478 1480 1483 1486 1492 1502 1514 1516 1527 1529 1515 1487 1484 1482 1483 1482 1482 1483 1485 1486 1488 1490 1493 1495 1497 1500 1502 1503 1505 1506 1507 1507 1508 1508 1509 1509 1509 1509 1510 1510 1510
1475 1486 1494 1485 1476 1474 1477 1485 1496 1507 1514 1519 1522 1511 1479 1478 1477 1478 1480 1481 1483 1484 1486 1487 1489 1491 1493 1495 1497 1499 1501 1502 1503 1504 1505 1506 1506 1506 1507 1507 1507 1507 1507 1507
1474 1486 1500 1497 1490 1481 1481 1484 1489 1497 1509 1519 1520 1506 1480 1478 1477 1478 1479 1480 1481 1483 1485 1486 1488 1489 1491 1492 1494 1496 1497 1499 1501 1502 1502 1503 1503 1503 1504 1504 1505 1505 1505 1505
1468 1484 1493 1499 1494 1485 1485 1484 1487 1494 1506 1512 1506 1496 1483 1480 1478 1477 1478 1479 1480 1482 1483 1484 1486 1487 1488 1489 1491 1492 1494 1496 1498 1499 1499 1500 1500 1501 1501 1502 1502 1502 1502 1502
1469 1483 1483 1482 1479 1480 1481 1481 1484 1488 1490 1496 1492 1490 1481 1478 1477 1476 1477 1478 1479 1480 1481 1483 1484 1485 1486 1487 1488 1489 1491 1493 1495 1496 1496 1497 1498 1498 1499 1499 1499 1499 1499 1499
1473 1481 1482 1483 1479 1479 1481 1479 1479 1480 1482 1485 1484 1483 1474 1474 1474 1475 1475 1476 1477 1478 1479 1480 1482 1483 1484 1485 1487 1488 1489 1491 1492 1493 1494 1494 1495 1496 1496 1496 1496 1496 1496 1496
1478 1482 1488 1492 1484 1481 1488 1479 1478 1478 1477 1478 1482 1478 1473 1473 1473 1473 1473 1474 1475 1475 1476 1477 1479 1480 1482 1483 1485 1486 1488 1489 1489 1490 1491 1492 1492 1492 1493 1493 1493 1494 1494 1494
1477 1484 1492 1495 1490 1498 1484 1472 1472 1474 1474 1473 1473 1472 1471 1471 1470 1471 1472 1472 1473 1474 1475 1476 1477 1478 1480 1482 1483 1485 1485 1486 1487 1487 1488 1489 1489 1489 1490 1490 1490 1490 1491 1491
1470 1480 1493 1499 1499 1492 1479 1471 1471 1474 1475 1470 1471 1470 1470 1470 1470 1471 1471 1471 1471 1472 1473 1474 1475 1476 1477 1479 1481 1482 1482 1483 1483 1484 1485 1486 1486 1487 1487 1487 1487 1487 1488 1488
1472 1476 1488 1496 1496 1497 1480 1467 1465 1470 1477 1467 1467 1468 1469 1470 1475 1471 1468 1469 1470 1470 1471 1472 1472 1473 1475 1476 1478 1479 1479 1480 1480 1481 1482 1482 1483 1483 1484 1484 1484 1484 1484 1484
1479 1484 1489 1493 1493 1485 1470 1465 1467 1480 1476 1465 1465 1465 1467 1468 1469 1467 1467 1467 1468 1468 1469 1469 1470 1471 1472 1473 1474 1475 1476 1476 1477 1478 1479 1479 1480 1480 1480 1481 1481 1481 1480 1480
1479 1484 1488 1492 1492 1486 1465 1465 1469 1468 1463 1462 1462 1463 1464 1465 1465 1464 1464 1465 1465 1465 1466 1466 1467 1468 1469 1470 1471 1471 1472 1474 1475 1475 1476 1477 1477 1477 1477 1477 1477 1477 1477 1477
1475 1474 1475 1477 1476 1466 1463 1463 1463 1462 1461 1461 1461 1462 1462 1463 1462 1462 1462 1463 1463 1463 1463 1464 1464 1464 1466 1467 1467 1468 1469 1470 1471 1471 1472 1473 1473 1474 1473 1474 1474 1473 1474 1474
1469 1468 1470 1471 1466 1463 1462 1461 1461 1461 1460 1460 1460 1460 1460 1460 1459 1459 1460 1460 1460 1460 1461 1461 1461 1461 1462 1463 1464 1464 1465 1467 1467 1468 1468 1469 1469 1469 1470 1470 1470 1470 1470 1470
1467 1467 1469 1468 1464 1462 1460 1460 1460 1459 1459 1459 1459 1459 1458 1458 1457 1457 1457 1457 1457 1457 1458 1458 1458 1458 1459 1460 1460 1461 1461 1463 1463 1464 1464 1465 1465 1465 1466 1467 1467 1467 1467 1467
1464 1465 1466 1465 1460 1460 1458 1458 1458 1458 1457 1457 1457 1456 1456 1456 1455 1455 1455 1455 1455 1454 1454 1454 1455 1455 1455 1456 1456 1457 1458 1459 1459 1460 1460 1461 1461 1462 1462 1462 1463 1463 1464 1464